This is the latest recevied weather packets stored in our database for station/object IN3MWE-10. If no packets are shown the sender has not sent any weather packets the latest 10 day(s).
| Time | Temp. | Humidity | Pressure | Rain* | Wind** | Luminosity | Snow |
|---|---|---|---|---|---|---|---|
| 1787446226 | 18.33° C | 76% | 983.2 hPa | - | - | - | - |
| 1787445326 | 18.33° C | 76% | 983.1 hPa | - | - | - | - |
| 1787444426 | 18.33° C | 74% | 983.1 hPa | - | - | - | - |
| 1787443526 | 18.89° C | 73% | 983 hPa | - | - | - | - |
| 1787442626 | 18.89° C | 74% | 983 hPa | - | - | - | - |
| 1787441726 | 18.33° C | 75% | 983 hPa | - | - | - | - |
| 1787440826 | 18.89° C | 72% | 983 hPa | - | - | - | - |
| 1787439926 | 18.89° C | 74% | 982.9 hPa | - | - | - | - |
| 1787439025 | 18.89° C | 73% | 982.8 hPa | - | - | - | - |
| 1787438125 | 18.89° C | 78% | 982.7 hPa | - | - | - | - |
| 1787437225 | 18.89° C | 76% | 982.6 hPa | - | - | - | - |
| 1787436325 | 18.33° C | 77% | 982.5 hPa | - | - | - | - |
| 1787435425 | 18.33° C | 80% | 982.5 hPa | - | - | - | - |
| 1787434525 | 18.89° C | 76% | 982.4 hPa | - | - | - | - |
| 1787433625 | 18.89° C | 77% | 982.3 hPa | - | - | - | - |
| 1787432724 | 18.89° C | 77% | 982 hPa | - | - | - | - |
| 1787431824 | 19.44° C | 72% | 981.8 hPa | - | - | - | - |
| 1787430924 | 19.44° C | 71% | 981.6 hPa | - | - | - | - |
| 1787430024 | 20° C | 70% | 981.4 hPa | - | - | - | - |
| 1787429124 | 20° C | 67% | 981.2 hPa | - | - | - | - |
| 1787428224 | 20.56° C | 62% | 981 hPa | - | - | - | - |
| 1787427323 | 20.56° C | 60% | 980.9 hPa | - | - | - | - |
| 1787426423 | 20.56° C | 65% | 980.6 hPa | - | - | - | - |
| 1787425523 | 20.56° C | 67% | 980.3 hPa | - | - | - | - |
| 1787424623 | 20.56° C | 67% | 979.9 hPa | - | - | - | - |
* Rain since midnight (hover to see other rain measurements)
** Current wind speed in m/s (hover to see current wind gust speed)